Regional Weather Roundup
Issued by NWS

Home | Current Version | Previous Version | Graphics & Text | Print | Product List | Glossary On
Versions: 1 2 3 4 5 6 7 8 9 10 11 12 13 14 15 16 17 18 19 20 21 22 23 24 25 26 27 28 29 30 31 32 33 34 35 36 37 38 39 40 41 42 43 44 45 46 47 48 49 50
000
ASUS43 KIND 251500
RWRIN

WEATHER ROUNDUP FOR INDIANA
NATIONAL WEATHER SERVICE INDIANAPOLIS IN
1100 AM EDT TUE JUL 25 2017

NOTE: "FAIR" INDICATES FEW OR NO CLOUDS BELOW 12,000 FEET WITH NO
SIGNIFICANT WEATHER AND/OR OBSTRUCTIONS TO VISIBILITY.

* - STATION DOES NOT REPORT WEATHER SUCH AS PRECIPITATION OR FOG.

+ - STATION NOT QUALITY CONTROLLED BY THE NATIONAL WEATHER SERVICE.
    USE DATA WITH CAUTION...ESPECIALLY DEWPOINT AND RELATIVE
    HUMIDITY OBSERVATIONS.

INZ001>003-010>013-019-020-251600-
NORTHWEST INDIANA

CITY           SKY/WX    TMP DP  RH WIND       PRES   REMARKS
GARY /AIRPORT/ MOSUNNY   73  55  53 SE14      30.22S
MICHIGAN CITY+ SUNNY     72  55  56 SE6       30.23S
MONTICELLO +   SUNNY     71  59  65 SE6       30.21S
RENSSELAER +   SUNNY     72  59  64 SE12      30.22S

$$

LMZ046-743>745-251600-
SOUTHERN LAKE MICHIGAN

STATION/POSITION TIME  TEMP    WIND        PRES    WAVE
                       AIR SEA DIR/SP/G            HT
                 (UTC) (F)     (DEG/KT/KT) (MB)    (FT)
MICHIGAN CITY    1430   70     150/ 10/ 13   N/A
5NW MICH CITY    1450   71 74  160/ 10/ 14   N/A     2

$$

INZ004-005-014>016-021>024-251600-
NORTH CENTRAL INDIANA

CITY           SKY/WX    TMP DP  RH WIND       PRES   REMARKS
ELKHART        SUNNY    N/A N/A N/A CALM      30.23S
GOSHEN         SUNNY     72  51  47 SE7       30.24S
SOUTH BEND     SUNNY     73  54  51 SE12      30.23F
WARSAW +       SUNNY     70  52  52 E7        30.25R

$$

INZ006>009-017-018-025>027-251600-
NORTHEAST INDIANA

CITY           SKY/WX    TMP DP  RH WIND       PRES   REMARKS
FORT WAYNE     MOSUNNY   71  50  47 E10       30.25R
KENDALLVILLE + SUNNY     71  54  55 E7        30.25S

$$

INZ028-029-035-036-043>045-051>053-251600-
WEST CENTRAL INDIANA

CITY           SKY/WX    TMP DP  RH WIND       PRES   REMARKS
LAFAYETTE      SUNNY     73  58  59 E13       30.20S
TERRE HAUTE    SUNNY     74  62  66 E8        30.18R

$$

INZ030>032-037>040-046>048-054>057-064-065-251600-
CENTRAL INDIANA

CITY           SKY/WX    TMP DP  RH WIND       PRES   REMARKS
ANDERSON       SUNNY     70  59  68 MISG      30.22
FRANKFORT +    SUNNY     74  60  61 SE12      30.23S
GREENWOOD *+   SUNNY    N/A N/A N/A SE8       30.21F
INDIANAPOLIS   MOSUNNY   73  56  54 SE12      30.19F
-EAGLE CREEK   SUNNY     73  54  51 E10       30.20S
KOKOMO +       SUNNY     71  58  63 E8        30.23S
MT COMFORT *+  SUNNY     72  59  64 E8        30.21F
SHELBYVILLE    SUNNY     73  59  61 E7        30.19F

$$

INZ033-034-041-042-049-050-058-059-251600-
EAST CENTRAL INDIANA

CITY           SKY/WX    TMP DP  RH WIND       PRES   REMARKS
MUNCIE         SUNNY     73  57  57 E10       30.23S
RICHMOND +     SUNNY     68  55  64 E8        30.23S

$$

INZ060-061-067>069-081>083-085>088-251600-
SOUTHWEST INDIANA

CITY           SKY/WX    TMP DP  RH WIND       PRES   REMARKS
EVANSVILLE     SUNNY     78  67  68 E8        30.13S
HUNTINGBURG *+ SUNNY     76  67  73 E8        30.15S

$$

INZ062-063-066-070>080-084-089>092-251600-
SOUTH CENTRAL AND SOUTHEAST INDIANA

CITY           SKY/WX    TMP DP  RH WIND       PRES   REMARKS
BLOOMINGTON    SUNNY     74  60  61 E9        30.18F
MADISON *+     SUNNY     73  59  60 E7        30.20F
SEYMOUR +      SUNNY    N/A N/A N/A E5        30.18S

$$





USA.gov is the U.S. government's official web portal to all federal, state and local government web resources and services.